www.pogodaiklimat.ru

Погода и климат >> Архив погоды >> Таиланд >> Яла Агромет


ПОГОДА в Яла Агромете

  • Прогноз погоды в Яла Агромете
  • Монитор погоды в Яла Агромете

АРХИВ ПОГОДЫ в Яла Агромете

Время (UTC), дата Ветер
(напр.,м/с)
 
Видим.   Явления Облачность Т
(С)
Тd
(С)
f
(%)
Тe
(С)
Тes
(С)
Комфортность P
(гПа)
Po
(гПа)
Тmin
(С)
Tmax
(С)
R
(мм)
R24
(мм)
S
(см)
00 16.07 З 2 10 км 6/1 600 м
[Cu hum Ac lent Ci fib]
+24.5 +22.7 90 +32 +33 очень
душно
1008.7 1004.5 +23.8
03 16.07 З 3 10 км 10/3 600 м
[Cu hum Ac lent Cs]
+30.0 +23.6 69 +41 +45 опасность
перегрева
1009.8 1005.7
06 16.07 Ю 7 10 км 10/3 600 м
[Cu med, cong Ac lent Cs]
+31.6 +24.2 65 +44 +46 опасность
перегрева
1007.9 1003.8
09 16.07 ЮЗ 7 8000 м дымка 10/3 600 м
[Sc Ac lent Cs]
+27.8 +22.5 73 +37 +37 очень
душно
1007.4 1003.3
12 16.07 ЮЗ 6 8000 м дымка 10/3 600 м
[Sc Ac lent Cs]
+26.0 +21.8 78 +33 +33 очень
душно
1008.3 1004.1 +31.8
15 16.07 З 4 8000 м дымка 10/3 600 м
[Sc Ac lent Cs]
+25.0 +22.3 85 +33 +33 очень
душно
1009.8 1005.6
18 16.07 ЮЗ 6 7000 м дымка 10/1 600 м
[Sc diur, vesp Ac lent Cs]
+25.3 +22.5 84 +33 +33 очень
душно
1008.6 1004.4
21 16.07 ЮЗ 7 7000 м дымка 10/1 600 м
[Cu hum Ac und Cs]
+24.4 +22.6 90 +32 +32 очень
душно
1007.6 1003.4
00 17.07 ЮЗ 7 10 км 8/1 600 м
[Cu hum Ac trans Cs]
+24.8 +22.6 88 +33 +33 очень
душно
1008.2 1004.0 +23.7
03 17.07 ЮЗ 7 10 км 4/1 600 м
[Cu hum Ac trans Ci fib]
+30.0 +23.2 67 +40 +43 очень
душно
1008.6 1004.5
06 17.07 штиль 0 10 км 8/3 600 м
[Cu med, cong Ac trans Ci sp]
+33.5 +22.1 51 +42 +57 опасность
перегрева
1006.4 1002.4
09 17.07 штиль 0 10 км 8/3 600 м
[Sc Ac As Cs]
+33.1 +23.3 56 +44 +48 опасность
перегрева
1004.8 1000.7
12 17.07 штиль 0 9000 м дымка 8/3 600 м
[Cu hum Ac As Cs]
+29.4 +24.1 73 +41 +41 опасность
перегрева
1005.8 1001.7 +34.3
15 17.07 штиль 0 8000 м дымка 8/3 600 м
[Cu hum Ac trans Cs]
+27.5 +25.2 87 +40 +40 очень
душно
1009.1 1005.0
18 17.07 штиль 0 7000 м дымка 8/3 600 м
[Cu hum Ac trans Cs]
+26.0 +24.6 92 +37 +37 очень
душно
1008.3 1004.2
21 17.07 штиль 0 6000 м дымка 8/3 600 м
[Sc Ac As Cs]
+24.0 +22.5 91 +31 +31 очень
душно
1007.0 1002.8
00 18.07 штиль 0 5000 м дымка 10/3 600 м
[Sc Ac As Cs]
+25.1 +23.9 93 +34 +35 очень
душно
1007.3 1003.2 +23.8
03 18.07 штиль 0 8000 м дымка 10/3 600 м
[Cu med, cong Ac As Cs]
+28.5 +24.6 79 +40 +47 очень
душно
1008.1 1004.0
06 18.07 В 3 10 км 10/3 600 м
[Cu med, cong Ac lent Cs]
+32.7 +24.6 62 +45 +51 опасность
перегрева
1006.0 1002.0
09 18.07 ЮВ 4 8000 м 10/4 300 м
[Sc Ac As Cs]
+33.5 +24.9 61 +47 +48 опасность
перегрева
1004.5 1000.4
12 18.07 штиль 0 8000 м дымка 10/3 300 м
[Cb cap Ac As Cs]
+28.1 +24.4 80 +39 +39 очень
душно
1006.7 1002.6 +34.3
15 18.07 штиль 0 7000 м дымка 8/3 600 м
[Cu hum Ac As Cs]
+27.4 +23.9 81 +38 +38 очень
душно
1008.9 1004.8
18 18.07 штиль 0 7000 м дымка 8/3 600 м
[Cu hum Ac As Cs]
+26.2 +24.5 90 +37 +37 очень
душно
1008.4 1004.3
21 18.07 штиль 0 7000 м дымка 8/1 600 м
[Cu hum Ac As Cs]
+25.0 +24.3 96 +35 +35 очень
душно
1007.0 1002.8
00 19.07 штиль 0 6000 м дымка 10/3 600 м
[Cu hum Ac As Cs]
+24.7 +24.0 96 +34 +34 очень
душно
1007.5 1003.4 +24.4
03 19.07 З 4 6000 м дымка 10/1 600 м
[Cu hum Ac lent Cs]
+29.5 +25.2 78 +43 +47 опасность
перегрева
1008.6 1004.6
06 19.07 штиль 0 6000 м дымка 10/8 600 м
[Cu med, cong Ac As Cs]
+32.0 +25.2 67 +46 +48 опасность
перегрева
1007.3 1003.2
09 19.07 СВ 2 5000 м дымка {гроза} 10/5 300 м
[Cb calv Ac lent Cs]
+27.4 +24.7 85 +39 +41 очень
душно
1006.2 1002.1 2
12 19.07 С 2 5000 м дымка 10/3 600 м
[Cu hum Ac lent Cs]
+26.9 +24.9 89 +39 +39 очень
душно
1007.5 1003.4 +32.1 2
15 19.07 штиль 0 5000 м дымка 10/3 600 м
[Cu hum Ac lent Cs]
+26.0 +24.8 93 +37 +37 очень
душно
1009.0 1004.9
18 19.07 штиль 0 5000 м дымка 10/3 600 м
[Cu hum Ac lent Cs]
+25.4 +24.4 94 +35 +35 очень
душно
1008.7 1004.6
21 19.07 штиль 0 5000 м дымка 10/3 600 м
[Cu hum Ac lent Cs]
+24.9 +24.3 96 +34 +34 очень
душно
1008.2 1004.0
00 20.07 В 2 3000 м дымка 10/3 600 м
[Cu hum Ac lent Cs]
+25.0 +24.3 96 +35 +35 очень
душно
1008.9 1004.7 +24.5
03 20.07 ЮВ 2 6000 м дымка 10/3 600 м
[Cu hum Ac lent Cs]
+29.4 +25.3 79 +43 +48 опасность
перегрева
1009.5 1005.4
06 20.07 штиль 0 5000 м дымка 10/3 600 м
[Cu hum Ac lent Cs]
+31.0 +25.4 72 +45 +55 опасность
перегрева
1008.1 1004.0
09 20.07 штиль 0 5000 м дымка 10/4 600 м
[Cu med, cong Ac lent Cs]
+31.2 +26.0 74 +47 +49 опасность
перегрева
1006.5 1002.4
12 20.07 штиль 0 4000 м дымка 10/4 600 м
[Cu med, cong Ac lent Cs]
+27.9 +26.2 90 +42 +42 опасность
перегрева
1008.7 1004.6 +32.4
15 20.07 штиль 0 5000 м дымка 10/3 600 м
[Cu med, cong Ac lent Cs]
+28.4 +26.1 87 +43 +43 опасность
перегрева
1009.6 1005.5
18 20.07 штиль 0 5000 м дымка 10/3 600 м
[Cu hum Ac lent Cs]
+26.2 +25.0 93 +37 +37 очень
душно
1008.8 1004.7
21 20.07 штиль 0 5000 м дымка 9/3 600 м
[Cu hum Ac lent Cs]
+25.1 +24.4 96 +35 +35 очень
душно
1008.5 1004.3
00 21.07 ЮЗ 3 6000 м дымка 9/3 600 м
[Cu hum Ac lent Ci]
+24.9 +24.3 96 +34 +35 очень
душно
1009.4 1005.3 +24.1
03 21.07 штиль 0 6000 м дымка 10/3 600 м
[Cu hum Ac lent Cs]
+29.0 +25.8 83 +43 +50 опасность
перегрева
1009.8 1005.7
06 21.07 штиль 0 8000 м мгла 8/3 600 м
[Cu hum Ac lent Cs]
+33.0 +24.8 62 +46 +58 опасность
перегрева
1008.2 1004.2
09 21.07 штиль 0 8000 м мгла 9/3 600 м
[Cu hum Ac lent Cs]
+33.9 +24.9 59 +47 +51 опасность
перегрева
1007.1 1003.1
12 21.07 штиль 0 7000 м дымка 8/1 600 м
[Cu hum Ac lent Cs]
+27.5 +25.4 88 +40 +40 очень
душно
1008.2 1004.1 +34.1
15 21.07 штиль 0 7000 м дымка 4/1 600 м
[Cu hum Ci sp]
+26.5 +24.6 89 +37 +37 очень
душно
1009.8 1005.7
18 21.07 штиль 0 7000 м дымка 6/1 600 м
[Cu hum Ci fib]
+26.0 +24.8 93 +37 +37 очень
душно
1009.4 1005.3
21 21.07 штиль 0 7000 м дымка 6/1 600 м
[Cu hum Ci fib]
+25.0 +23.8 93 +34 +34 очень
душно
1008.9 1004.7
00 22.07 штиль 0 4000 м дымка 10/1 600 м
[Cu hum Ac lent Cs]
+24.5 +23.8 96 +33 +34 очень
душно
1009.7 1005.5 +24.1
03 22.07 Ю 3 9000 м дымка 10/1 600 м
[Cu hum Ac lent Cs]
+28.0 +24.4 81 +39 +45 очень
душно
1011.5 1007.4
06 22.07 З 4 10 км 6/3 600 м
[Cu hum Ci sp]
+34.4 +23.0 52 +45 +53 опасность
перегрева
1008.5 1004.4
09 22.07 штиль 0 10 км 6/3 600 м
[Cu hum Ci sp]
+35.5 +24.5 53 +48 +54 опасность
перегрева
1006.1 1002.1
12 22.07 штиль 0 7000 м дымка 10/3 300 м
[Cu Sc Ac As Cs]
+26.1 +23.0 83 +35 +35 очень
душно
1008.5 1004.4 +35.6
15 22.07 штиль 0 7000 м дымка {дождь} 5/3 600 м
[Cu hum Ci sp]
+25.6 +23.2 87 +34 +34 очень
душно
1010.6 1006.5 0.2

 

Местоположение метеостанции Яла Агромет (Таиланд): широта 6.52 долгота 101.28 высота над уровнем моря 36 м.

В архиве по умолчанию представлена погода в Яла Агромете за последнюю неделю. Архивные данные за месяц целиком и за предыдущие месяцы, начиная с января 2011 года, Вы можете получить, выбрав интересующий диапазон дат из раскрывающегося списка и нажав кнопку "Ввод!".


*Определитесь, кто Вы:
робот инопланетянин человек

Внимание! Время в таблицах - всемирное. Для получения местного времени необходимо прибавить поправку, которая равна 7 ч.

Смотрите также архив погоды в соседних городах и на ближайших метеорологических станциях:

Погода в Паттани (Таиланд) (32 км)
Погода в Наратхивате (Таиланд) (60 км)
Погода в Садао (Таиланд) (102 км)
Погода в Алор Стар (Малайзия) (104 км)
Погода в Хатъяе (Таиланд) (104 км)
Погода в Сонгкхле (Таиланд) (106 км)
Погода в Кота-Бхару (Малайзия) (117 км)
Погода в Сатуне (Таиланд) (133 км)
Погода в Хо Хонг Агромете (Таиланд) (133 км)
Погода на Авиабазе Баттерворт (Малайзия) (153 км)

Пояснения к столбцам:

Ветер - указаны скорость ветра в м/с - средняя за 10 мин, порывы в срок и между сроками (в фигурных скобках) и направление, откуда дует ветер: С - северный, СВ - северо-восточный, В - восточный, ЮВ - юго-восточный, Ю - южный, ЮЗ - юго-западный, З - западный, СЗ - северо-западный.
Видимость - горизонтальная дальность видимости в метрах или километрах. При видимости от 1 до 10 км при отсутствии осадков обычно наблюдается дымка, при ухудшении видимости до 1 км и менее - туман. В сухую погоду видимость может ухудшаться дымом, пылью или мглою.
Явления - указаны атмосферные явления, наблюдавшиеся в срок или в последний час перед сроком; фигурными скобками обозначены явления, наблюдавшиеся между сроками (за 1-3 часа до срока); квадратными скобками обозначены град или гололедные отложения с указанием их диаметра в мм.
Облачность - указаны через наклонную черту общая и нижняя облачность в баллах и высота нижней границы облаков в метрах; квадратными скобками обозначены формы облаков: Ci - перистые, Cs - перисто-слоистые, Cc - перисто-кучевые, Ac - высококучевые, As - высокослоистые, Sc - слоисто-кучевые, Ns - слоисто-дождевые, Cu - кучевые, Cb - кучево-дождевые. Подробнее классификацию облаков см. в Атласе облаков (PDF).
T - Температура воздуха - температура, измеренная на высоте 2 м над землей.
Td - Температура точки росы - температура, при понижении до которой содержащийся в воздухе водяной пар достигнет насыщения.
f - Относительная влажность воздуха - влажноcть воздуха, измеренная на высоте 2 м над землей.
Te - Эффективная температура - температура, которую ощущает одетый по сезону человек в тени. Характеристика душности погоды. При расчете учитывается влияние влажности воздуха и скорости ветра на теплоощущения человека.
Tes - Эффективная температура на солнце - температура, которую ощущает человек, с поправкой на солнечный нагрев. Характеристика знойности погоды. Зависит от высоты солнца над горизонтом, облачности и скорости ветра. Ночью, в пасмурную погоду, а также при ветре 12 м/с и более поправка равна нулю.
P - Атмосферное давление - приведенное к уровню моря атмосферное давление.
Po - Атмосферное давление - измеренное на уровне метеостанции атмосферное давление.
Tmin - Минимальная температура - минимум температуры воздуха на высоте 2 м над землей.
Tmax - Максимальная температура - максимум температуры воздуха на высоте 2 м над землей.
R - Количество осадков - Количество выпавших осадков за период времени, мм. При наведении курсора мыши на число - период времени, за который выпало указанное количество осадков.
R24 - Количество осадков - Количество выпавших осадков за 24 часа, мм.
S - Снежный покров - Высота снежного покрова, см. При наведении курсора мыши на число - состояние снежного покрова и степень покрытия местности в баллах.